Hourly Weather Chambolle-Musigny

Today, 15 June, Tuesday

Time Temperature Precipitation Wind Pressure Humidity
00:00 +17°C° 0 mm 2 mps 732 mmHg 92%
01:00 +17°C° 0 mm 2 mps 732 mmHg 92%
02:00 +16°C° 0 mm 2 mps 732 mmHg 92%
03:00 +16°C° 0 mm 2 mps 731 mmHg 92%
04:00 +18°C° 0 mm 1 mps 732 mmHg 90%
05:00 +19°C° 0 mm 1 mps 732 mmHg 88%
06:00 +20°C° 0 mm 1 mps 732 mmHg 84%
07:00 +22°C° 0 mm 1 mps 732 mmHg 78%
08:00 +23°C° 0 mm 2 mps 733 mmHg 71%
09:00 +25°C° 0 mm 2 mps 733 mmHg 64%
10:00 +26°C° 0 mm 2 mps 733 mmHg 61%
11:00 +27°C° 0 mm 2 mps 733 mmHg 58%
12:00 +28°C° 0 mm 2 mps 733 mmHg 55%
13:00 +28°C° 0 mm 2 mps 732 mmHg 56%
14:00 +28°C° 0 mm 2 mps 732 mmHg 56%
15:00 +28°C° 0 mm 2 mps 732 mmHg 56%
16:00 +27°C° 0 mm 2 mps 732 mmHg 64%
17:00 +26°C° 0 mm 2 mps 731 mmHg 71%
18:00 +26°C° 0 mm 2 mps 731 mmHg 78%
19:00 +24°C° 0 mm 2 mps 731 mmHg 82%
20:00 +21°C° 0 mm 2 mps 731 mmHg 86%
21:00 +19°C° 0 mm 2 mps 731 mmHg 90%
22:00 +19°C° 0 mm 2 mps 731 mmHg 91%
23:00 +19°C° 0 mm 1 mps 731 mmHg 91%

Tomorrow, 16 June, Wednesday

Time Temperature Precipitation Wind Pressure Humidity
00:00 +19°C° 0 mm 1 mps 730 mmHg 92%
01:00 +19°C° 0 mm 1 mps 730 mmHg 92%
02:00 +18°C° 0 mm 1 mps 730 mmHg 92%
03:00 +18°C° 0 mm 1 mps 730 mmHg 92%
04:00 +19°C° 0 mm 1 mps 730 mmHg 90%
05:00 +20°C° 0 mm 1 mps 730 mmHg 88%
06:00 +19°C° 0 mm 0 mps 730 mmHg 86%
07:00 +22°C° 0 mm 1 mps 730 mmHg 80%
08:00 +24°C° 0 mm 1 mps 729 mmHg 73%
09:00 +26°C° 0 mm 2 mps 729 mmHg 67%
10:00 +27°C° 0 mm 2 mps 729 mmHg 64%
11:00 +28°C° 0 mm 2 mps 729 mmHg 60%
12:00 +29°C° 0 mm 2 mps 729 mmHg 57%
13:00 +30°C° 0 mm 2 mps 728 mmHg 56%
14:00 +30°C° 0 mm 2 mps 728 mmHg 55%
15:00 +31°C° 0 mm 2 mps 728 mmHg 55%
16:00 +29°C° 0.1 mm 2 mps 727 mmHg 62%
17:00 +28°C° 0.1 mm 3 mps 727 mmHg 70%
18:00 +27°C° 0.1 mm 3 mps 727 mmHg 78%
19:00 +25°C° 0.5 mm 2 mps 727 mmHg 82%
20:00 +23°C° 0.5 mm 2 mps 727 mmHg 86%
21:00 +20°C° 0.5 mm 2 mps 727 mmHg 90%
22:00 +20°C° 0 mm 2 mps 727 mmHg 90%
23:00 +19°C° 0 mm 2 mps 727 mmHg 91%

Day after tomorrow, 17 June, Thursday

Time Temperature Precipitation Wind Pressure Humidity
00:00 +19°C° 0 mm 2 mps 727 mmHg 91%
01:00 +18°C° 0 mm 2 mps 727 mmHg 92%
02:00 +18°C° 0 mm 2 mps 727 mmHg 93%
03:00 +17°C° 0 mm 3 mps 727 mmHg 94%
04:00 +18°C° 0 mm 2 mps 727 mmHg 93%
05:00 +19°C° 0 mm 2 mps 728 mmHg 91%
06:00 +20°C° 0 mm 2 mps 728 mmHg 90%
07:00 +21°C° 0 mm 2 mps 728 mmHg 82%
08:00 +24°C° 0 mm 2 mps 728 mmHg 74%
09:00 +26°C° 0 mm 2 mps 729 mmHg 66%
10:00 +27°C° 0 mm 2 mps 728 mmHg 62%
11:00 +28°C° 0 mm 2 mps 728 mmHg 58%
12:00 +29°C° 0 mm 1 mps 728 mmHg 54%
13:00 +30°C° 0 mm 2 mps 728 mmHg 54%
14:00 +30°C° 0 mm 2 mps 728 mmHg 54%
15:00 +30°C° 0 mm 2 mps 727 mmHg 54%
16:00 +29°C° 0.1 mm 2 mps 727 mmHg 62%
17:00 +28°C° 0.1 mm 3 mps 727 mmHg 69%
18:00 +27°C° 0.1 mm 3 mps 727 mmHg 77%
19:00 +24°C° 1 mm 3 mps 727 mmHg 81%
20:00 +21°C° 1 mm 3 mps 727 mmHg 85%
21:00 +18°C° 1 mm 3 mps 728 mmHg 89%
22:00 +18°C° 0 mm 3 mps 728 mmHg 88%
23:00 +18°C° 0 mm 2 mps 727 mmHg 87%

18 June, Friday

Time Temperature Precipitation Wind Pressure Humidity
00:00 +18°C° 0 mm 2 mps 727 mmHg 86%
01:00 +19°C° 0 mm 1 mps 727 mmHg 87%
02:00 +18°C° 0 mm 1 mps 727 mmHg 89%
03:00 +18°C° 0 mm 1 mps 728 mmHg 91%
04:00 +19°C° 0 mm 1 mps 728 mmHg 89%
05:00 +19°C° 0 mm 2 mps 728 mmHg 88%
06:00 +19°C° 0 mm 2 mps 729 mmHg 87%
07:00 +21°C° 0 mm 2 mps 729 mmHg 79%
08:00 +24°C° 0 mm 2 mps 729 mmHg 71%
09:00 +26°C° 0 mm 2 mps 729 mmHg 63%
10:00 +26°C° 0 mm 2 mps 729 mmHg 62%
11:00 +27°C° 0 mm 3 mps 729 mmHg 61%
12:00 +27°C° 0 mm 3 mps 729 mmHg 60%
13:00 +26°C° 1.4 mm 2 mps 729 mmHg 65%
14:00 +26°C° 1.4 mm 2 mps 729 mmHg 70%
15:00 +25°C° 1.4 mm 2 mps 729 mmHg 74%
16:00 +25°C° 0.6 mm 2 mps 729 mmHg 79%
17:00 +24°C° 0.6 mm 1 mps 729 mmHg 83%
18:00 +23°C° 0.6 mm 1 mps 729 mmHg 87%
19:00 +22°C° 0.2 mm 1 mps 729 mmHg 88%
20:00 +21°C° 0.2 mm 1 mps 729 mmHg 89%
21:00 +20°C° 0.2 mm 1 mps 729 mmHg 91%
22:00 +20°C° 0 mm 1 mps 729 mmHg 91%
23:00 +20°C° 0 mm 1 mps 729 mmHg 91%

19 June, Saturday

Time Temperature Precipitation Wind Pressure Humidity
00:00 +19°C° 0 mm 1 mps 729 mmHg 92%
01:00 +19°C° 0 mm 1 mps 730 mmHg 92%
02:00 +17°C° 0 mm 0 mps 730 mmHg 93%
03:00 +16°C° 0 mm 0 mps 730 mmHg 94%
04:00 +17°C° 0 mm 0 mps 730 mmHg 93%
05:00 +20°C° 0 mm 1 mps 730 mmHg 93%
06:00 +21°C° 0 mm 1 mps 730 mmHg 92%
07:00 +22°C° 0 mm 1 mps 730 mmHg 85%
08:00 +24°C° 0 mm 2 mps 730 mmHg 78%
09:00 +26°C° 0 mm 2 mps 730 mmHg 71%
10:00 +26°C° 0.1 mm 3 mps 730 mmHg 70%
11:00 +27°C° 0.1 mm 3 mps 730 mmHg 69%
12:00 +27°C° 0.1 mm 3 mps 729 mmHg 68%
13:00 +28°C° 0.5 mm 3 mps 729 mmHg 69%
14:00 +28°C° 0.5 mm 4 mps 728 mmHg 69%
15:00 +28°C° 0.5 mm 4 mps 728 mmHg 70%
16:00 +27°C° 0.1 mm 4 mps 728 mmHg 70%
17:00 +27°C° 0.1 mm 3 mps 728 mmHg 70%
18:00 +26°C° 0.1 mm 3 mps 727 mmHg 70%
19:00 +25°C° 0.1 mm 3 mps 727 mmHg 74%
20:00 +23°C° 0.1 mm 2 mps 727 mmHg 77%
21:00 +21°C° 0.1 mm 2 mps 727 mmHg 81%
22:00 +20°C° 0.4 mm 2 mps 727 mmHg 85%
23:00 +19°C° 0.4 mm 2 mps 727 mmHg 89%

20 June, Sunday

Time Temperature Precipitation Wind Pressure Humidity
00:00 +19°C° 0.4 mm 2 mps 727 mmHg 93%
01:00 +18°C° 0.1 mm 2 mps 727 mmHg 93%
02:00 +19°C° 0.1 mm 1 mps 727 mmHg 93%
03:00 +16°C° 0.1 mm 0 mps 726 mmHg 93%
04:00 +17°C° 0.1 mm 0 mps 727 mmHg 93%
05:00 +17°C° 0.1 mm 0 mps 727 mmHg 92%
06:00 +20°C° 0.1 mm 1 mps 727 mmHg 91%
07:00 +20°C° 0.3 mm 2 mps 727 mmHg 90%
08:00 +20°C° 0.3 mm 3 mps 727 mmHg 88%
09:00 +21°C° 0.3 mm 4 mps 728 mmHg 87%
10:00 +22°C° 0.1 mm 4 mps 728 mmHg 80%
11:00 +25°C° 0.1 mm 4 mps 727 mmHg 73%
12:00 +26°C° 0.1 mm 4 mps 727 mmHg 67%
13:00 +26°C° 0.1 mm 4 mps 727 mmHg 65%
14:00 +27°C° 0.1 mm 3 mps 727 mmHg 63%
15:00 +27°C° 0.1 mm 2 mps 726 mmHg 61%
16:00 +26°C° 0.5 mm 2 mps 726 mmHg 68%
17:00 +25°C° 0.5 mm 2 mps 726 mmHg 75%
18:00 +23°C° 0.5 mm 2 mps 726 mmHg 83%
19:00 +21°C° 0.6 mm 2 mps 726 mmHg 86%
20:00 +21°C° 0.6 mm 1 mps 726 mmHg 89%
21:00 +20°C° 0.6 mm 1 mps 726 mmHg 93%
22:00 +20°C° 2.3 mm 1 mps 726 mmHg 94%
23:00 +19°C° 2.3 mm 1 mps 726 mmHg 96%
Show more

We Need Your Consent

Meteoprog and our Service Providers may store and access personal data such as cookies, device identifiers or other similar technologies on your device and process such data to personalise content and ads, as well as provide social media features and to analyse the traffic.

  • Store and/or access information on your device

    Cookies, device identifiers or other information can be stored or accessed on your device for the purposes indicated above.

  • Personalised ads and content, ad and content measurement, audience insights, and products development

    Ads and content can be personalised based on a profile. More data can be added to better personalise ads and content. Ad and content performance can be measured. Insights about the audience who saw the ads and content can be derived. Such data can be used to develop or improve user’s experience, systems and software.

By clicking ‘I Agree’ you will allow the use of indicated cookies, device identifiers, web beacons or other similar technologies. Your settings can be changed in the browser on your device.

For certain purposes, legitimate interests may be relied on, rather than consent. You can read more about this in our Privacy and Cookie Policy.